QPF
0.05 0.05 0.04 0.04 0.04 0.03 0.04 0.04 0.03 0.04 0.04 0.04 0.04 0.04 0.04 0.04 0.04 0.03 0.03 0.04 0.04 0.04 0.04 0.04 0.04 0.04 0.04 0.03 0.03 0.03 0.04 0.04 0.05 0.03 0.02 0.01 0.01 0.01 0.01 0.01 0.01 0.01 0.01
0.02 0.02 0.01 0.01 0.02 0.02 0.02 0.02 0.02 0.03 0.03 0.04 0.04 0.04 0.04 0.05 0.05 0.05 0.04 0.04 0.04 0.04 0.04 0.04 0.04 0.03 0.03 0.03 0.02 0.03 0.03 0.03 0.03 0.03 0.02 0.02 0.02 0.01 0.01 0.01 0.01 0.01 0.01
0.02 0.01 0.01 0.01 0.01 0.01 0.01 0.01 0.01 0.02 0.02 0.02 0.03 0.03 0.03 0.03 0.03 0.03 0.03 0.03 0.03 0.03 0.03 0.03 0.03 0.03 0.03 0.02 0.02 0.02 0.02 0.02 0.03 0.03 0.03 0.02 0.02 0.02 0.02 0.01 0.01 0.01 0.01
0.02 0.02 0.02 0.02 0.02 0.02 0.01 0.01 0.01 0.02 0.02 0.02 0.02 0.02 0.02 0.02 0.02 0.02 0.02 0.02 0.02 0.02 0.02 0.02 0.02 0.02 0.03 0.02 0.02 0.02 0.02 0.03 0.03 0.03 0.03 0.02 0.02 0.02 0.02 0.03 0.02 0.02 0.02
0.02 0.02 0.02 0.02 0.02 0.02 0.02 0.02 0.02 0.02 0.02 0.02 0.01 0.01 0.02 0.02 0.02 0.02 0.02 0.02 0.02 0.02 0.02 0.02 0.02 0.03 0.03 0.03 0.03 0.03 0.03 0.03 0.03 0.03 0.03 0.03 0.03 0.03 0.03 0.03 0.03 0.03 0.02
0.02 0.02 0.02 0.02 0.02 0.02 0.02 0.02 0.02 0.02 0.02 0.02 0.01 0.01 0.01 0.02 0.02 0.02 0.02 0.02 0.02 0.02 0.03 0.03 0.03 0.03 0.03 0.03 0.03 0.03 0.03 0.03 0.03 0.03 0.03 0.02 0.02 0.02 0.02 0.02 0.03 0.03 0.03
0.02 0.03 0.03 0.02 0.02 0.02 0.02 0.02 0.02 0.02 0.01 0.01 0.01 0.01 0.02 0.02 0.03 0.03 0.03 0.02 0.02 0.02 0.03 0.03 0.03 0.03 0.03 0.03 0.03 0.02 0.02 0.02 0.03 0.03 0.03 0.02 0.02 0.02 0.02 0.02 0.02 0.02 0.02
0.03 0.03 0.03 0.02 0.02 0.02 0.02 0.03 0.02 0.02 0.01 0.01 0.01 0.01 0.01 0.02 0.03 0.03 0.02 0.02 0.02 0.02 0.03 0.03 0.03 0.03 0.03 0.04 0.03 0.02 0.02 0.01 0.02 0.02 0.02 0.02 0.02 0.01 0.02 0.02 0.02 0.02 0.01
0.02 0.02 0.02 0.02 0.02 0.02 0.02 0.02 0.02 0.01 0.01 0.01 0.01 0.01 0.01 0.01 0.02 0.02 0.02 0.02 0.02 0.02 0.02 0.02 0.02 0.02 0.03 0.03 0.02 0.03 0.02 0.02 0.01 0.01 0.01 0.01 0.01 0.01 0.01 0.02 0.02 0.02 0.02
0.02 0.02 0.02 0.01 0.01 0.01 0.01 0.01 0.01 0.01 0.01 0.01 0.01 0.01 0.01 0.01 0.02 0.02 0.02 0.01 0.01 0.01 0.01 0.01 0.01 0.01 0.02 0.02 0.02 0.02 0.02 0.02 0.02 0.01 0.01 0.00 0.00 0.00 0.01 0.02 0.02 0.03 0.02
0.01 0.01 0.01 0.01 0.01 0.01 0.01 0.01 0.01 0.01 0.01 0.01 0.01 0.01 0.01 0.01 0.01 0.01 0.01 0.01 0.01 0.01 0.01 0.01 0.01 0.01 0.01 0.01 0.02 0.02 0.02 0.02 0.02 0.01 0.01 0.01 0.01 0.00 0.00 0.01 0.01 0.02 0.03
0.01 0.01 0.01 0.01 0.01 0.01 0.01 0.01 0.01 0.01 0.01 0.01 0.01 0.01 0.01 0.01 0.01 0.01 0.01 0.01 0.01 0.01 0.01 0.01 0.01 0.01 0.01 0.01 0.01 0.01 0.01 0.01 0.01 0.01 0.01 0.01 0.01 0.01 0.01 0.01 0.01 0.01 0.01
0.01 0.01 0.01 0.01 0.01 0.01 0.01 0.01 0.01 0.01 0.01 0.01 0.01 0.01 0.01 0.01 0.01 0.01 0.01 0.01 0.01 0.01 0.01 0.01 0.01 0.01 0.01 0.00 0.00 0.00 0.00 0.00 0.01 0.01 0.01 0.01 0.01 0.01 0.01 0.01 0.01 0.01 0.01
0.01 0.01 0.01 0.01 0.01 0.01 0.01 0.01 0.01 0.01 0.01 0.01 0.01 0.01 0.01 0.01 0.01 0.01 0.01 0.01 0.01 0.01 0.01 0.00 0.00 0.00 0.00 0.00 0.00 0.00 0.00 0.00 0.01 0.01 0.01 0.01 0.01 0.01 0.01 0.01 0.01 0.01 0.01
0.00 0.00 0.00 0.00 0.01 0.01 0.01 0.01 0.01 0.01 0.01 0.02 0.01 0.01 0.01 0.01 0.01 0.01 0.01 0.01 0.01 0.01 0.01 0.00 0.00 0.00 0.00 0.00 0.01 0.01 0.01 0.01 0.01 0.01 0.01 0.01 0.01 0.01 0.01 0.01 0.01 0.01 0.01
0.00 0.00 0.00 0.00 0.00 0.01 0.01 0.01 0.01 0.01 0.01 0.01 0.01 0.01 0.01 0.01 0.01 0.01 0.01 0.01 0.01 0.01 0.01 0.01 0.00 0.00 0.00 0.00 0.00 0.01 0.01 0.01 0.01 0.01 0.01 0.01 0.01 0.02 0.02 0.02 0.01 0.02 0.02
0.00 0.01 0.01 0.01 0.01 0.01 0.01 0.01 0.01 0.01 0.01 0.01 0.01 0.01 0.01 0.01 0.01 0.01 0.01 0.01 0.01 0.01 0.01 0.01 0.01 0.01 0.01 0.01 0.01 0.01 0.01 0.01 0.01 0.01 0.01 0.01 0.01 0.01 0.01 0.01 0.01 0.01 0.02
0.00 0.01 0.01 0.01 0.01 0.01 0.01 0.00 0.00 0.00 0.00 0.00 0.00 0.01 0.01 0.01 0.01 0.01 0.01 0.01 0.00 0.00 0.01 0.01 0.01 0.01 0.01 0.01 0.01 0.01 0.01 0.01 0.01 0.01 0.02 0.01 0.01 0.01 0.01 0.01 0.01 0.01 0.02
0.00 0.01 0.01 0.01 0.01 0.01 0.01 0.00 0.00 0.00 0.00 0.00 0.00 0.00 0.00 0.00 0.00 0.00 0.00 0.00 0.01 0.01 0.01 0.01 0.01 0.01 0.01 0.01 0.01 0.01 0.01 0.01 0.01 0.01 0.01 0.01 0.01 0.02 0.01 0.01 0.01 0.01 0.01
0.00 0.00 0.00 0.00 0.00 0.00 0.00 0.00 0.00 0.00 0.00 0.00 0.00 0.00 0.00 0.00 0.00 0.00 0.00 0.00 0.01 0.01 0.01 0.01 0.01 0.01 0.01 0.01 0.01 0.01 0.01 0.01 0.01 0.01 0.01 0.01 0.01 0.02 0.02 0.01 0.01 0.01 0.01
0.00 0.00 0.00 0.00 0.00 0.00 0.00 0.00 0.00 0.00 0.00 0.00 0.00 0.00 0.01 0.01 0.00 0.00 0.00 0.00 0.01 0.01 0.01 0.01 0.01 0.01 0.01 0.01 0.01 0.01 0.01 0.01 0.01 0.01 0.01 0.01 0.01 0.01 0.01 0.01 0.01 0.01 0.01
0.00 0.00 0.00 0.00 0.00 0.00 0.00 0.00 0.00 0.00 0.00 0.00 0.00 0.00 0.00 0.00 0.00 0.00 0.00 0.00 0.01 0.01 0.01 0.01 0.01 0.01 0.01 0.01 0.01 0.01 0.01 0.01 0.01 0.01 0.01 0.01 0.01 0.01 0.01 0.01 0.01 0.01 0.01
0.00 0.00 0.00 0.00 0.00 0.00 0.00 0.00 0.00 0.00 0.00 0.00 0.00 0.00 0.00 0.00 0.00 0.00 0.00 0.00 0.00 0.00 0.01 0.01 0.01 0.01 0.01 0.01 0.01 0.01 0.01 0.01 0.01 0.01 0.01 0.01 0.01 0.01 0.01 0.01 0.01 0.01 0.01
0.00 0.00 0.00 0.00 0.00 0.00 0.00 0.00 0.00 0.01 0.00 0.00 0.00 0.00 0.00 0.00 0.00 0.00 0.00 0.00 0.00 0.01 0.01 0.01 0.01 0.01 0.01 0.01 0.01 0.01 0.01 0.01 0.01 0.01 0.01 0.01 0.01 0.01 0.01 0.01 0.01 0.01 0.02
0.00 0.00 0.00 0.00 0.00 0.00 0.00 0.00 0.00 0.00 0.00 0.00 0.00 0.00 0.00 0.00 0.00 0.00 0.00 0.00 0.00 0.01 0.00 0.00 0.01 0.01 0.01 0.01 0.01 0.01 0.01 0.01 0.01 0.01 0.01 0.01 0.01 0.01 0.01 0.01 0.01 0.01 0.02
0.00 0.00 0.00 0.00 0.00 0.00 0.00 0.00 0.00 0.00 0.00 0.00 0.00 0.00 0.00 0.00 0.00 0.00 0.00 0.01 0.01 0.00 0.00 0.00 0.00 0.01 0.01 0.01 0.01 0.01 0.01 0.01 0.01 0.01 0.01 0.01 0.01 0.01 0.01 0.01 0.01 0.01 0.02
MSLP
1029.76 1030.29 1030.83 1031.31 1031.71 1032.01 1032.22 1032.36 1032.48 1032.59 1032.71 1032.84 1032.97 1033.06 1033.10 1033.07 1032.97 1032.82 1032.64 1032.46 1032.32 1032.24 1032.21 1032.22 1032.22 1032.17 1032.00 1031.66 1031.15 1030.45 1029.59 1028.61 1027.55 1026.46 1025.39 1024.36 1023.39 1022.46 1021.56 1020.68 1019.79 1018.89 1017.97
1030.51 1030.98 1031.44 1031.85 1032.19 1032.45 1032.64 1032.78 1032.88 1032.97 1033.07 1033.16 1033.23 1033.27 1033.26 1033.18 1033.04 1032.86 1032.66 1032.47 1032.32 1032.23 1032.19 1032.18 1032.16 1032.09 1031.91 1031.59 1031.10 1030.43 1029.60 1028.65 1027.60 1026.51 1025.40 1024.30 1023.23 1022.19 1021.18 1020.19 1019.20 1018.22 1017.24
1031.11 1031.53 1031.93 1032.29 1032.59 1032.81 1032.98 1033.10 1033.19 1033.26 1033.32 1033.37 1033.39 1033.37 1033.31 1033.19 1033.02 1032.83 1032.63 1032.45 1032.31 1032.21 1032.16 1032.13 1032.08 1031.98 1031.78 1031.45 1030.96 1030.32 1029.53 1028.61 1027.60 1026.53 1025.42 1024.30 1023.18 1022.07 1020.98 1019.89 1018.82 1017.75 1016.69
1031.57 1031.94 1032.29 1032.60 1032.86 1033.06 1033.22 1033.33 1033.41 1033.46 1033.50 1033.50 1033.48 1033.41 1033.30 1033.16 1032.98 1032.78 1032.59 1032.43 1032.29 1032.20 1032.13 1032.07 1031.98 1031.83 1031.59 1031.23 1030.74 1030.10 1029.35 1028.48 1027.52 1026.50 1025.43 1024.34 1023.22 1022.09 1020.96 1019.81 1018.66 1017.50 1016.35
1031.88 1032.21 1032.52 1032.79 1033.02 1033.20 1033.35 1033.47 1033.55 1033.60 1033.62 1033.60 1033.54 1033.44 1033.29 1033.12 1032.93 1032.74 1032.56 1032.41 1032.28 1032.17 1032.08 1031.97 1031.83 1031.62 1031.32 1030.91 1030.40 1029.77 1029.04 1028.23 1027.34 1026.40 1025.41 1024.38 1023.31 1022.21 1021.07 1019.89 1018.69 1017.46 1016.22
1032.07 1032.36 1032.62 1032.86 1033.06 1033.25 1033.40 1033.54 1033.64 1033.70 1033.72 1033.69 1033.60 1033.47 1033.30 1033.11 1032.91 1032.71 1032.53 1032.37 1032.23 1032.11 1031.97 1031.81 1031.59 1031.31 1030.94 1030.48 1029.93 1029.30 1028.60 1027.84 1027.04 1026.19 1025.31 1024.37 1023.39 1022.34 1021.24 1020.06 1018.83 1017.55 1016.22
1032.15 1032.40 1032.62 1032.82 1033.02 1033.20 1033.38 1033.54 1033.67 1033.76 1033.79 1033.76 1033.67 1033.52 1033.33 1033.11 1032.89 1032.67 1032.47 1032.29 1032.13 1031.96 1031.77 1031.54 1031.25 1030.89 1030.45 1029.93 1029.35 1028.72 1028.04 1027.35 1026.63 1025.88 1025.10 1024.28 1023.39 1022.43 1021.37 1020.23 1018.99 1017.66 1016.26
1032.13 1032.33 1032.52 1032.69 1032.88 1033.08 1033.28 1033.47 1033.64 1033.76 1033.82 1033.80 1033.70 1033.54 1033.32 1033.08 1032.82 1032.58 1032.35 1032.13 1031.93 1031.71 1031.46 1031.17 1030.81 1030.38 1029.88 1029.31 1028.71 1028.07 1027.43 1026.78 1026.14 1025.48 1024.80 1024.07 1023.28 1022.39 1021.39 1020.28 1019.05 1017.70 1016.24
1031.99 1032.16 1032.31 1032.47 1032.65 1032.85 1033.08 1033.31 1033.51 1033.66 1033.74 1033.73 1033.63 1033.46 1033.22 1032.94 1032.66 1032.38 1032.11 1031.86 1031.61 1031.35 1031.05 1030.71 1030.30 1029.83 1029.29 1028.71 1028.09 1027.46 1026.84 1026.24 1025.64 1025.05 1024.44 1023.77 1023.04 1022.20 1021.25 1020.16 1018.94 1017.58 1016.08
1031.71 1031.85 1031.98 1032.12 1032.30 1032.52 1032.76 1033.01 1033.24 1033.41 1033.50 1033.50 1033.40 1033.21 1032.95 1032.65 1032.33 1032.02 1031.72 1031.44 1031.17 1030.89 1030.57 1030.21 1029.79 1029.31 1028.77 1028.19 1027.58 1026.98 1026.38 1025.80 1025.23 1024.66 1024.07 1023.43 1022.71 1021.89 1020.94 1019.86 1018.63 1017.26 1015.74
1031.28 1031.41 1031.52 1031.65 1031.82 1032.04 1032.29 1032.55 1032.79 1032.97 1033.06 1033.06 1032.95 1032.74 1032.46 1032.15 1031.81 1031.48 1031.18 1030.89 1030.62 1030.35 1030.05 1029.71 1029.32 1028.87 1028.37 1027.83 1027.26 1026.68 1026.10 1025.53 1024.96 1024.38 1023.76 1023.09 1022.33 1021.48 1020.50 1019.39 1018.14 1016.75 1015.22
1030.69 1030.81 1030.92 1031.05 1031.22 1031.44 1031.69 1031.94 1032.17 1032.33 1032.41 1032.39 1032.26 1032.04 1031.75 1031.43 1031.09 1030.78 1030.49 1030.23 1030.00 1029.77 1029.53 1029.25 1028.93 1028.56 1028.13 1027.66 1027.15 1026.61 1026.05 1025.47 1024.88 1024.25 1023.56 1022.81 1021.98 1021.04 1019.99 1018.83 1017.54 1016.12 1014.57
1029.97 1030.09 1030.21 1030.34 1030.52 1030.73 1030.97 1031.20 1031.40 1031.54 1031.58 1031.53 1031.37 1031.14 1030.85 1030.53 1030.21 1029.93 1029.68 1029.48 1029.32 1029.17 1029.02 1028.85 1028.63 1028.37 1028.04 1027.66 1027.22 1026.73 1026.20 1025.61 1024.98 1024.28 1023.50 1022.64 1021.69 1020.64 1019.50 1018.25 1016.90 1015.45 1013.89
1029.17 1029.30 1029.44 1029.59 1029.77 1029.98 1030.20 1030.40 1030.56 1030.65 1030.65 1030.55 1030.36 1030.11 1029.82 1029.52 1029.24 1029.00 1028.82 1028.70 1028.62 1028.58 1028.54 1028.49 1028.40 1028.25 1028.05 1027.77 1027.42 1026.99 1026.49 1025.90 1025.22 1024.44 1023.57 1022.59 1021.51 1020.34 1019.08 1017.74 1016.32 1014.83 1013.26
1028.36 1028.51 1028.67 1028.86 1029.05 1029.26 1029.46 1029.63 1029.73 1029.76 1029.70 1029.55 1029.33 1029.05 1028.76 1028.48 1028.24 1028.06 1027.95 1027.91 1027.93 1028.00 1028.07 1028.14 1028.18 1028.16 1028.07 1027.91 1027.65 1027.28 1026.82 1026.23 1025.52 1024.69 1023.72 1022.64 1021.44 1020.15 1018.78 1017.35 1015.87 1014.34 1012.76
1027.60 1027.79 1027.99 1028.21 1028.43 1028.65 1028.83 1028.95 1029.00 1028.97 1028.84 1028.64 1028.37 1028.07 1027.77 1027.51 1027.30 1027.18 1027.13 1027.17 1027.28 1027.44 1027.61 1027.78 1027.93 1028.02 1028.04 1027.97 1027.79 1027.50 1027.08 1026.51 1025.80 1024.93 1023.91 1022.75 1021.46 1020.08 1018.63 1017.13 1015.60 1014.05 1012.46
1026.96 1027.19 1027.44 1027.70 1027.95 1028.17 1028.33 1028.42 1028.42 1028.32 1028.13 1027.86 1027.55 1027.23 1026.92 1026.67 1026.49 1026.41 1026.42 1026.51 1026.69 1026.91 1027.15 1027.40 1027.61 1027.78 1027.88 1027.89 1027.79 1027.57 1027.20 1026.67 1025.97 1025.10 1024.06 1022.86 1021.54 1020.10 1018.60 1017.06 1015.50 1013.93 1012.37
1026.45 1026.72 1027.02 1027.32 1027.60 1027.83 1027.99 1028.04 1027.99 1027.83 1027.58 1027.26 1026.90 1026.55 1026.23 1025.99 1025.83 1025.77 1025.82 1025.95 1026.16 1026.42 1026.70 1026.98 1027.23 1027.44 1027.59 1027.65 1027.60 1027.43 1027.12 1026.64 1025.98 1025.14 1024.12 1022.93 1021.60 1020.15 1018.64 1017.08 1015.52 1013.97 1012.43
1026.04 1026.35 1026.70 1027.04 1027.35 1027.59 1027.74 1027.76 1027.67 1027.46 1027.16 1026.79 1026.40 1026.03 1025.71 1025.47 1025.33 1025.29 1025.36 1025.51 1025.73 1025.99 1026.27 1026.55 1026.80 1027.02 1027.17 1027.25 1027.23 1027.09 1026.82 1026.39 1025.79 1025.00 1024.03 1022.88 1021.58 1020.16 1018.67 1017.14 1015.60 1014.07 1012.58
1025.70 1026.05 1026.43 1026.81 1027.14 1027.38 1027.52 1027.52 1027.39 1027.15 1026.81 1026.41 1026.01 1025.63 1025.31 1025.09 1024.97 1024.95 1025.03 1025.19 1025.40 1025.65 1025.90 1026.15 1026.36 1026.54 1026.67 1026.72 1026.70 1026.57 1026.32 1025.93 1025.38 1024.65 1023.74 1022.65 1021.42 1020.06 1018.62 1017.14 1015.65 1014.18 1012.75
1025.36 1025.74 1026.14 1026.55 1026.89 1027.14 1027.26 1027.25 1027.10 1026.83 1026.47 1026.07 1025.67 1025.31 1025.02 1024.82 1024.73 1024.74 1024.84 1025.00 1025.20 1025.41 1025.62 1025.80 1025.95 1026.06 1026.12 1026.12 1026.05 1025.90 1025.65 1025.28 1024.76 1024.08 1023.23 1022.22 1021.06 1019.79 1018.42 1017.01 1015.59 1014.19 1012.84
1025.00 1025.39 1025.81 1026.22 1026.57 1026.81 1026.92 1026.90 1026.74 1026.46 1026.11 1025.73 1025.36 1025.03 1024.79 1024.65 1024.60 1024.65 1024.77 1024.93 1025.11 1025.29 1025.44 1025.54 1025.60 1025.61 1025.57 1025.48 1025.33 1025.12 1024.83 1024.44 1023.93 1023.28 1022.49 1021.55 1020.48 1019.29 1018.02 1016.70 1015.37 1014.07 1012.81
1024.62 1025.01 1025.43 1025.83 1026.17 1026.40 1026.50 1026.47 1026.31 1026.05 1025.73 1025.39 1025.07 1024.81 1024.63 1024.56 1024.57 1024.67 1024.82 1024.99 1025.15 1025.28 1025.36 1025.37 1025.32 1025.20 1025.03 1024.82 1024.55 1024.24 1023.87 1023.43 1022.91 1022.27 1021.52 1020.64 1019.65 1018.56 1017.39 1016.19 1014.97 1013.78 1012.64
1024.25 1024.64 1025.05 1025.43 1025.75 1025.97 1026.06 1026.03 1025.88 1025.65 1025.37 1025.08 1024.84 1024.66 1024.56 1024.57 1024.65 1024.80 1024.98 1025.15 1025.29 1025.37 1025.36 1025.27 1025.08 1024.83 1024.51 1024.14 1023.73 1023.29 1022.81 1022.30 1021.72 1021.07 1020.34 1019.52 1018.61 1017.62 1016.57 1015.49 1014.41 1013.35 1012.35
1023.97 1024.34 1024.74 1025.10 1025.40 1025.60 1025.68 1025.65 1025.53 1025.33 1025.11 1024.89 1024.72 1024.63 1024.62 1024.69 1024.84 1025.03 1025.23 1025.39 1025.49 1025.50 1025.40 1025.19 1024.86 1024.45 1023.96 1023.42 1022.85 1022.26 1021.66 1021.05 1020.41 1019.74 1019.02 1018.25 1017.41 1016.53 1015.61 1014.67 1013.74 1012.84 1011.99
1023.85 1024.22 1024.59 1024.93 1025.21 1025.39 1025.47 1025.44 1025.34 1025.19 1025.02 1024.87 1024.78 1024.76 1024.82 1024.95 1025.14 1025.35 1025.54 1025.67 1025.72 1025.64 1025.43 1025.08 1024.60 1024.02 1023.37 1022.66 1021.92 1021.18 1020.45 1019.74 1019.03 1018.33 1017.62 1016.89 1016.15 1015.38 1014.59 1013.81 1013.04 1012.30 1011.62
Thickness
5443 5443 5443 5444 5444 5444 5443 5443 5443 5442 5441 5440 5438 5437 5436 5434 5432 5430 5428 5427 5424 5422 5420 5418 5415 5411 5409 5405 5402 5399 5396 5393 5393 5397 5393 5391 5388 5385 5383 5380 5376 5374 5371
5432 5432 5433 5433 5433 5433 5432 5431 5431 5430 5429 5427 5425 5424 5422 5420 5419 5417 5415 5413 5411 5408 5405 5403 5400 5398 5394 5391 5388 5385 5382 5378 5376 5377 5378 5375 5372 5369 5367 5364 5361 5357 5354
5422 5422 5422 5422 5422 5422 5421 5420 5419 5418 5417 5415 5413 5410 5408 5406 5404 5403 5401 5399 5397 5393 5390 5388 5385 5383 5380 5377 5374 5371 5367 5364 5361 5359 5360 5359 5357 5353 5350 5349 5345 5342 5338
5413 5412 5412 5412 5412 5411 5411 5409 5408 5406 5405 5402 5400 5397 5395 5392 5391 5390 5388 5385 5382 5379 5375 5373 5370 5368 5365 5363 5360 5356 5353 5350 5347 5344 5344 5343 5341 5338 5333 5331 5331 5328 5324
5403 5402 5402 5402 5402 5400 5399 5398 5396 5394 5392 5390 5387 5385 5382 5379 5378 5376 5374 5371 5368 5364 5361 5358 5355 5352 5349 5347 5345 5342 5338 5335 5332 5329 5328 5326 5324 5321 5316 5314 5312 5312 5310
5395 5393 5392 5392 5391 5390 5389 5387 5384 5382 5380 5377 5375 5372 5369 5367 5365 5363 5360 5357 5354 5350 5347 5344 5341 5338 5335 5332 5330 5326 5323 5319 5317 5314 5311 5308 5305 5301 5298 5295 5293 5293 5295
5388 5386 5384 5383 5382 5381 5379 5376 5374 5371 5369 5366 5362 5359 5356 5354 5352 5350 5347 5343 5340 5336 5332 5330 5328 5324 5321 5319 5316 5313 5309 5304 5301 5297 5293 5290 5286 5283 5281 5279 5276 5272 5272
5380 5378 5376 5374 5373 5371 5368 5366 5363 5361 5357 5353 5350 5347 5343 5341 5339 5337 5334 5330 5327 5323 5319 5316 5313 5311 5308 5306 5303 5299 5295 5291 5287 5283 5279 5274 5270 5266 5263 5260 5258 5257 5258
5373 5370 5368 5365 5363 5361 5359 5356 5353 5350 5346 5342 5339 5335 5331 5329 5327 5325 5322 5319 5315 5311 5308 5304 5301 5298 5296 5293 5290 5287 5284 5279 5275 5270 5266 5261 5257 5253 5249 5247 5243 5242 5244
5366 5363 5360 5357 5355 5352 5350 5347 5343 5339 5335 5331 5327 5323 5320 5317 5315 5313 5310 5307 5304 5301 5297 5293 5289 5286 5284 5280 5276 5272 5269 5267 5262 5259 5254 5250 5245 5240 5236 5231 5227 5224 5223
5359 5355 5352 5349 5346 5344 5340 5337 5333 5329 5324 5319 5316 5312 5308 5305 5303 5301 5299 5296 5293 5289 5286 5282 5277 5274 5272 5268 5263 5259 5255 5252 5248 5244 5241 5237 5233 5229 5224 5219 5214 5209 5206
5352 5348 5345 5341 5338 5335 5331 5327 5322 5318 5314 5309 5305 5302 5298 5295 5293 5291 5288 5284 5281 5277 5274 5269 5265 5263 5259 5255 5250 5246 5242 5238 5233 5230 5227 5224 5221 5217 5213 5209 5204 5199 5195
5345 5341 5337 5333 5329 5325 5321 5317 5313 5308 5303 5300 5296 5292 5289 5286 5283 5280 5277 5274 5270 5266 5261 5257 5254 5250 5246 5241 5237 5232 5227 5222 5218 5215 5213 5210 5206 5203 5201 5198 5196 5192 5189
5338 5334 5330 5325 5321 5317 5312 5308 5303 5299 5295 5291 5287 5283 5280 5276 5273 5270 5267 5262 5258 5254 5249 5244 5240 5236 5232 5227 5222 5217 5212 5207 5203 5200 5198 5196 5194 5191 5189 5186 5183 5181 5180
5332 5327 5322 5318 5313 5308 5304 5299 5295 5291 5286 5283 5279 5275 5271 5268 5265 5261 5257 5253 5248 5243 5237 5232 5227 5223 5218 5213 5208 5203 5198 5194 5190 5187 5184 5183 5182 5180 5177 5173 5170 5166 5163
5326 5321 5315 5310 5305 5300 5296 5291 5287 5284 5280 5276 5272 5267 5263 5260 5257 5253 5248 5243 5238 5232 5226 5219 5214 5208 5203 5199 5194 5190 5185 5180 5177 5174 5172 5169 5167 5166 5165 5161 5157 5154 5152
5320 5315 5309 5303 5298 5293 5287 5283 5279 5277 5271 5267 5263 5259 5255 5251 5247 5243 5238 5232 5226 5220 5211 5205 5200 5195 5189 5185 5180 5175 5171 5167 5164 5161 5159 5156 5154 5152 5150 5148 5146 5143 5141
5313 5308 5302 5297 5291 5285 5280 5275 5270 5265 5261 5257 5253 5249 5245 5241 5237 5232 5226 5220 5212 5205 5197 5191 5186 5181 5176 5171 5167 5162 5159 5155 5152 5149 5146 5144 5141 5139 5137 5135 5134 5131 5131
5307 5302 5296 5290 5284 5278 5272 5267 5261 5256 5251 5247 5243 5239 5234 5230 5225 5220 5213 5205 5198 5192 5186 5180 5175 5169 5164 5159 5154 5150 5146 5143 5140 5137 5134 5132 5129 5127 5125 5124 5123 5122 5122
5301 5296 5290 5283 5277 5271 5265 5259 5254 5248 5243 5238 5233 5229 5224 5219 5213 5207 5200 5193 5187 5182 5176 5170 5165 5159 5154 5149 5144 5139 5135 5132 5129 5126 5124 5122 5119 5117 5115 5113 5113 5113 5114
5296 5290 5283 5277 5270 5264 5258 5252 5247 5241 5235 5230 5225 5220 5216 5209 5202 5196 5189 5183 5178 5172 5167 5161 5155 5150 5145 5140 5135 5130 5126 5123 5120 5117 5114 5112 5110 5108 5106 5105 5104 5105 5107
5290 5284 5277 5270 5264 5257 5251 5245 5239 5233 5227 5222 5217 5211 5207 5199 5193 5187 5181 5176 5170 5164 5158 5152 5147 5142 5137 5132 5127 5122 5118 5115 5113 5110 5107 5104 5102 5100 5099 5099 5099 5099 5101
5284 5277 5270 5263 5256 5250 5243 5236 5230 5224 5219 5213 5207 5202 5196 5190 5184 5179 5173 5168 5162 5156 5150 5145 5139 5134 5129 5124 5119 5115 5112 5109 5106 5103 5100 5098 5096 5094 5093 5093 5093 5094 5096
5277 5270 5263 5256 5248 5241 5235 5228 5222 5216 5210 5204 5199 5193 5188 5182 5176 5171 5165 5160 5154 5149 5143 5138 5132 5128 5123 5118 5114 5110 5107 5104 5101 5098 5095 5093 5091 5090 5089 5089 5090 5090 5091
5269 5263 5256 5249 5241 5234 5227 5221 5215 5208 5202 5197 5191 5186 5180 5174 5169 5163 5158 5152 5147 5141 5136 5131 5126 5121 5117 5113 5109 5106 5103 5101 5098 5095 5092 5090 5088 5087 5087 5086 5086 5087 5088
5262 5255 5248 5241 5234 5227 5220 5214 5208 5201 5195 5190 5184 5179 5173 5167 5162 5156 5151 5145 5140 5135 5129 5125 5120 5116 5112 5108 5105 5102 5099 5097 5095 5093 5090 5088 5086 5086 5084 5084 5084 5085 5086